Orbital Elements at Epoch 2459000.5 (2020-May-31.0) TDB
Reference: JPL 15 (heliocentric ecliptic J2000)
Element | Value | Uncertainty (1-sigma) | Units |
e | .192891990351821 | 5.3043e-08 | |
a | 2.206556987678604 | 1.0007e-08 | au |
q | 1.780929818500559 | 1.1823e-07 | au |
i | 4.929596005605426 | 5.7989e-06 | deg |
node | 218.5129098181557 | 4.3298e-05 | deg |
peri | 2.294007736266468 | 4.4402e-05 | deg |
M | 117.9491050663775 | 9.2409e-06 | deg |
tp | 2458608.249687271132 (2019-May-04.74968727) | 3.0725e-05 | TDB |
period | 1197.212242542448 3.28 | 8.1444e-06 2.23e-08 | d yr |
n | .3006985622160775 | 2.0456e-09 | deg/d |
Q | 2.632184156856648 | 1.1937e-08 | au |
|
| | Orbit Determination Parameters
Additional Information
|